Time,TemperatureF,DewpointF,PressureIn,WindDirection,WindDirectionDegrees,WindSpeedMPH,WindSpeedGustMPH,Humidity,HourlyPrecipIn,Conditions,Clouds,dailyrainin,SoftwareType,DateUTC
2013-06-16 00:02:00,79.2,75.0,30.04,SE,142,0.0,-999.0,86,-99.99,,,0.00,weatherlink.com 1.10,2013-06-16 04:02:00,
2013-06-16 00:17:00,78.5,75.0,30.04,SE,142,0.0,-999.0,88,-99.99,,,0.00,weatherlink.com 1.10,2013-06-16 04:17:00,
2013-06-16 00:32:00,78.7,75.0,30.04,SE,142,0.0,-999.0,88,-99.99,,,0.00,weatherlink.com 1.10,2013-06-16 04:32:00,
2013-06-16 00:47:00,78.2,74.0,30.05,SE,142,0.0,-999.0,88,-99.99,,,0.00,weatherlink.com 1.10,2013-06-16 04:47:00,
2013-06-16 01:02:00,78.1,75.0,30.05,SE,142,0.0,-999.0,89,-99.99,,,0.00,weatherlink.com 1.10,2013-06-16 05:02:00,
2013-06-16 01:17:00,78.0,75.0,30.05,SE,143,0.0,-999.0,90,-99.99,,,0.00,weatherlink.com 1.10,2013-06-16 05:17:00,
2013-06-16 01:32:00,78.0,75.0,30.04,SE,143,0.0,-999.0,90,-99.99,,,0.00,weatherlink.com 1.10,2013-06-16 05:32:00,
2013-06-16 01:47:00,78.3,75.0,30.04,SE,140,0.0,-999.0,89,-99.99,,,0.00,weatherlink.com 1.10,2013-06-16 05:47:00,
2013-06-16 02:02:00,78.1,75.0,30.04,SE,140,0.0,-999.0,89,-99.99,,,0.00,weatherlink.com 1.10,2013-06-16 06:02:00,
2013-06-16 02:17:00,77.9,75.0,30.03,SE,140,0.0,-999.0,90,-99.99,,,0.00,weatherlink.com 1.10,2013-06-16 06:17:00,
2013-06-16 02:32:00,77.6,75.0,30.03,SE,140,0.0,-999.0,90,-99.99,,,0.00,weatherlink.com 1.10,2013-06-16 06:32:00,
2013-06-16 02:47:00,77.4,75.0,30.03,SE,140,0.0,-999.0,91,-99.99,,,0.00,weatherlink.com 1.10,2013-06-16 06:47:00,
2013-06-16 03:02:00,77.2,75.0,30.03,SE,140,0.0,-999.0,92,-99.99,,,0.00,weatherlink.com 1.10,2013-06-16 07:02:00,
2013-06-16 03:17:00,77.2,75.0,30.02,SE,140,0.0,-999.0,93,-99.99,,,0.00,weatherlink.com 1.10,2013-06-16 07:17:00,
2013-06-16 03:32:00,77.2,75.0,30.02,SE,140,0.0,-999.0,92,-99.99,,,0.00,weatherlink.com 1.10,2013-06-16 07:32:00,
2013-06-16 03:47:00,76.7,75.0,30.02,SE,140,0.0,-999.0,93,-99.99,,,0.00,weatherlink.com 1.10,2013-06-16 07:47:00,
2013-06-16 04:02:00,76.4,75.0,30.02,SE,140,0.0,-999.0,94,-99.99,,,0.00,weatherlink.com 1.10,2013-06-16 08:02:00,
2013-06-16 04:17:00,76.3,75.0,30.01,SE,140,0.0,-999.0,94,-99.99,,,0.00,weatherlink.com 1.10,2013-06-16 08:17:00,
2013-06-16 04:32:00,76.1,74.0,30.02,SE,140,0.0,-999.0,94,-99.99,,,0.00,weatherlink.com 1.10,2013-06-16 08:32:00,
2013-06-16 04:47:00,75.9,74.0,30.01,SE,140,0.0,-999.0,95,-99.99,,,0.00,weatherlink.com 1.10,2013-06-16 08:47:00,
2013-06-16 05:02:00,76.1,75.0,30.02,SE,140,0.0,-999.0,95,-99.99,,,0.00,weatherlink.com 1.10,2013-06-16 09:02:00,
2013-06-16 05:17:00,76.2,75.0,30.02,SE,140,0.0,-999.0,95,-99.99,,,0.00,weatherlink.com 1.10,2013-06-16 09:17:00,
2013-06-16 05:32:00,75.9,74.0,30.02,SE,140,0.0,-999.0,95,-99.99,,,0.00,weatherlink.com 1.10,2013-06-16 09:32:00,
2013-06-16 05:47:00,75.7,74.0,30.02,SE,140,0.0,-999.0,95,-99.99,,,0.00,weatherlink.com 1.10,2013-06-16 09:47:00,
2013-06-16 06:02:00,75.6,74.0,30.02,SE,140,0.0,-999.0,95,-99.99,,,0.00,weatherlink.com 1.10,2013-06-16 10:02:00,
2013-06-16 06:17:00,75.7,75.0,30.02,SE,140,0.0,-999.0,96,-99.99,,,0.00,weatherlink.com 1.10,2013-06-16 10:17:00,
2013-06-16 06:32:00,75.5,74.0,30.02,SE,140,0.0,-999.0,96,-99.99,,,0.00,weatherlink.com 1.10,2013-06-16 10:32:00,
2013-06-16 06:47:00,75.4,74.0,30.03,SE,140,0.0,-999.0,96,-99.99,,,0.00,weatherlink.com 1.10,2013-06-16 10:47:00,
2013-06-16 07:02:00,75.5,74.0,30.04,SE,140,0.0,-999.0,96,-99.99,,,0.00,weatherlink.com 1.10,2013-06-16 11:02:00,
2013-06-16 07:17:00,76.4,75.0,30.04,SE,140,0.0,-999.0,96,-99.99,,,0.00,weatherlink.com 1.10,2013-06-16 11:17:00,
2013-06-16 07:32:00,78.0,77.0,30.04,SE,140,0.0,-999.0,95,-99.99,,,0.00,weatherlink.com 1.10,2013-06-16 11:32:00,
2013-06-16 07:47:00,79.6,77.0,30.04,SE,126,0.0,-999.0,92,-99.99,,,0.00,weatherlink.com 1.10,2013-06-16 11:47:00,
2013-06-16 08:02:00,80.8,77.0,30.04,North,360,0.0,-999.0,88,-99.99,,,0.00,weatherlink.com 1.10,2013-06-16 12:02:00,
2013-06-16 08:18:00,82.2,77.0,30.05,NNW,344,0.0,-999.0,85,-99.99,,,0.00,weatherlink.com 1.10,2013-06-16 12:18:00,
2013-06-16 08:33:00,83.0,77.0,30.05,East,80,1.0,-999.0,82,-99.99,,,0.00,weatherlink.com 1.10,2013-06-16 12:33:00,
2013-06-16 08:48:00,84.3,78.0,30.05,ESE,112,0.0,-999.0,80,-99.99,,,0.00,weatherlink.com 1.10,2013-06-16 12:48:00,
2013-06-16 09:03:00,84.9,78.0,30.05,ENE,67,1.0,-999.0,79,-99.99,,,0.00,weatherlink.com 1.10,2013-06-16 13:03:00,
2013-06-16 09:18:00,86.2,78.0,30.06,East,86,1.0,-999.0,77,-99.99,,,0.00,weatherlink.com 1.10,2013-06-16 13:18:00,
2013-06-16 09:33:00,85.3,77.0,30.06,ESE,103,0.0,-999.0,77,-99.99,,,0.00,weatherlink.com 1.10,2013-06-16 13:33:00,
2013-06-16 09:48:00,84.7,78.0,30.06,SE,142,0.0,-999.0,79,-99.99,,,0.00,weatherlink.com 1.10,2013-06-16 13:48:00,
2013-06-16 10:03:00,84.0,77.0,30.06,SSE,148,1.0,-999.0,80,-99.99,,,0.00,weatherlink.com 1.10,2013-06-16 14:03:00,
2013-06-16 10:18:00,84.1,77.0,30.06,SSE,153,1.0,-999.0,80,-99.99,,,0.00,weatherlink.com 1.10,2013-06-16 14:18:00,
2013-06-16 10:33:00,84.3,78.0,30.06,East,94,0.0,-999.0,81,-99.99,,,0.00,weatherlink.com 1.10,2013-06-16 14:33:00,
2013-06-16 10:48:00,85.1,78.0,30.06,ESE,123,1.0,-999.0,78,-99.99,,,0.00,weatherlink.com 1.10,2013-06-16 14:48:00,
2013-06-16 11:03:00,85.4,77.0,30.06,SSE,165,1.0,-999.0,77,-99.99,,,0.00,weatherlink.com 1.10,2013-06-16 15:03:00,
2013-06-16 11:18:00,87.2,76.0,30.06,South,171,5.0,-999.0,70,-99.99,,,0.00,weatherlink.com 1.10,2013-06-16 15:18:00,
2013-06-16 11:33:00,88.3,76.0,30.06,SSE,163,4.0,-999.0,67,-99.99,,,0.00,weatherlink.com 1.10,2013-06-16 15:33:00,
2013-06-16 11:48:00,89.3,77.0,30.06,East,88,5.0,-999.0,66,-99.99,,,0.00,weatherlink.com 1.10,2013-06-16 15:48:00,
2013-06-16 12:03:00,89.1,77.0,30.06,SSE,167,0.0,-999.0,67,-99.99,,,0.00,weatherlink.com 1.10,2013-06-16 16:03:00,
2013-06-16 12:18:00,88.1,77.0,30.06,ENE,67,3.0,-999.0,69,-99.99,,,0.00,weatherlink.com 1.10,2013-06-16 16:18:00,
2013-06-16 12:33:00,88.7,76.0,30.06,South,181,4.0,-999.0,66,-99.99,,,0.00,weatherlink.com 1.10,2013-06-16 16:33:00,
2013-06-16 12:48:00,89.4,77.0,30.06,South,169,4.0,-999.0,67,-99.99,,,0.00,weatherlink.com 1.10,2013-06-16 16:48:00,
2013-06-16 13:03:00,89.7,75.0,30.05,ENE,69,7.0,-999.0,63,-99.99,,,0.00,weatherlink.com 1.10,2013-06-16 17:03:00,
2013-06-16 13:18:00,89.3,76.0,30.06,ESE,106,5.0,-999.0,64,-99.99,,,0.00,weatherlink.com 1.10,2013-06-16 17:18:00,
2013-06-16 13:33:00,90.4,76.0,30.05,ENE,61,5.0,-999.0,62,-99.99,,,0.00,weatherlink.com 1.10,2013-06-16 17:33:00,
2013-06-16 13:48:00,90.9,77.0,30.05,East,82,2.0,-999.0,63,-99.99,,,0.00,weatherlink.com 1.10,2013-06-16 17:48:00,
2013-06-16 14:03:00,90.8,76.0,30.05,SSE,153,6.0,-999.0,63,-99.99,,,0.00,weatherlink.com 1.10,2013-06-16 18:03:00,
2013-06-16 14:18:00,90.5,77.0,30.05,SSE,164,5.0,-999.0,65,-99.99,,,0.00,weatherlink.com 1.10,2013-06-16 18:18:00,
2013-06-16 14:33:00,90.8,75.0,30.04,East,94,6.0,-999.0,61,-99.99,,,0.00,weatherlink.com 1.10,2013-06-16 18:33:00,
2013-06-16 14:48:00,91.2,76.0,30.04,SE,135,1.0,-999.0,61,-99.99,,,0.00,weatherlink.com 1.10,2013-06-16 18:48:00,
2013-06-16 15:03:00,91.7,76.0,30.04,ESE,105,6.0,-999.0,61,-99.99,,,0.00,weatherlink.com 1.10,2013-06-16 19:03:00,
2013-06-16 15:18:00,91.9,78.0,30.04,ESE,113,2.0,-999.0,63,-99.99,,,0.00,weatherlink.com 1.10,2013-06-16 19:18:00,
2013-06-16 15:33:00,91.6,76.0,30.03,SE,138,5.0,-999.0,61,-99.99,,,0.00,weatherlink.com 1.10,2013-06-16 19:33:00,
2013-06-16 15:48:00,91.4,76.0,30.03,SE,128,1.0,-999.0,60,-99.99,,,0.00,weatherlink.com 1.10,2013-06-16 19:48:00,
2013-06-16 16:03:00,91.8,74.0,30.02,East,88,4.0,-999.0,57,-99.99,,,0.00,weatherlink.com 1.10,2013-06-16 20:03:00,
2013-06-16 16:18:00,91.5,75.0,30.02,SSW,213,3.0,-999.0,59,-99.99,,,0.00,weatherlink.com 1.10,2013-06-16 20:18:00,
2013-06-16 16:33:00,91.1,76.0,30.02,SE,135,4.0,-999.0,62,-99.99,,,0.00,weatherlink.com 1.10,2013-06-16 20:33:00,
2013-06-16 16:48:00,90.5,75.0,30.02,ESE,119,6.0,-999.0,61,-99.99,,,0.00,weatherlink.com 1.10,2013-06-16 20:48:00,
2013-06-16 17:03:00,90.7,75.0,30.01,SE,140,5.0,-999.0,61,-99.99,,,0.00,weatherlink.com 1.10,2013-06-16 21:03:00,
2013-06-16 17:18:00,90.3,75.0,30.01,SSE,165,2.0,-999.0,61,-99.99,,,0.00,weatherlink.com 1.10,2013-06-16 21:18:00,
2013-06-16 17:33:00,90.7,76.0,30.01,East,82,4.0,-999.0,62,-99.99,,,0.00,weatherlink.com 1.10,2013-06-16 21:33:00,
2013-06-16 17:48:00,89.5,77.0,30.01,South,188,6.0,-999.0,66,-99.99,,,0.00,weatherlink.com 1.10,2013-06-16 21:48:00,
2013-06-16 18:03:00,88.9,77.0,30.01,ESE,121,4.0,-999.0,68,-99.99,,,0.00,weatherlink.com 1.10,2013-06-16 22:03:00,
2013-06-16 18:18:00,88.6,75.0,30.01,ESE,115,2.0,-999.0,65,-99.99,,,0.00,weatherlink.com 1.10,2013-06-16 22:18:00,
2013-06-16 18:33:00,88.3,77.0,30.01,SSE,150,4.0,-999.0,69,-99.99,,,0.00,weatherlink.com 1.10,2013-06-16 22:33:00,
2013-06-16 18:48:00,87.6,77.0,30.01,SSE,152,2.0,-999.0,71,-99.99,,,0.00,weatherlink.com 1.10,2013-06-16 22:48:00,
2013-06-16 19:03:00,87.4,78.0,30.02,SE,134,4.0,-999.0,73,-99.99,,,0.00,weatherlink.com 1.10,2013-06-16 23:03:00,
2013-06-16 19:18:00,86.8,77.0,30.02,SE,146,6.0,-999.0,73,-99.99,,,0.00,weatherlink.com 1.10,2013-06-16 23:18:00,
2013-06-16 19:33:00,85.9,77.0,30.03,SSE,150,4.0,-999.0,75,-99.99,,,0.00,weatherlink.com 1.10,2013-06-16 23:33:00,
2013-06-16 19:48:00,85.2,77.0,30.04,ESE,108,5.0,-999.0,75,-99.99,,,0.00,weatherlink.com 1.10,2013-06-16 23:48:00,
2013-06-16 20:03:00,84.5,77.0,30.04,ESE,109,2.0,-999.0,77,-99.99,,,0.00,weatherlink.com 1.10,2013-06-17 00:03:00,
2013-06-16 20:18:00,83.8,76.0,30.04,SSE,159,2.0,-999.0,78,-99.99,,,0.00,weatherlink.com 1.10,2013-06-17 00:18:00,
2013-06-16 20:33:00,83.2,76.0,30.04,SSE,148,0.0,-999.0,80,-99.99,,,0.00,weatherlink.com 1.10,2013-06-17 00:33:00,
2013-06-16 20:48:00,82.8,76.0,30.04,SE,146,2.0,-999.0,80,-99.99,,,0.00,weatherlink.com 1.10,2013-06-17 00:48:00,
2013-06-16 21:03:00,82.5,76.0,30.04,SE,126,4.0,-999.0,80,-99.99,,,0.00,weatherlink.com 1.10,2013-06-17 01:03:00,
2013-06-16 21:18:00,82.4,76.0,30.04,SSE,161,5.0,-999.0,80,-99.99,,,0.00,weatherlink.com 1.10,2013-06-17 01:18:00,
2013-06-16 21:33:00,82.3,76.0,30.05,South,175,7.0,-999.0,81,-99.99,,,0.00,weatherlink.com 1.10,2013-06-17 01:33:00,
2013-06-16 21:48:00,82.2,76.0,30.05,ESE,119,1.0,-999.0,81,-99.99,,,0.00,weatherlink.com 1.10,2013-06-17 01:48:00,
2013-06-16 22:03:00,82.0,76.0,30.06,SSE,157,2.0,-999.0,81,-99.99,,,0.00,weatherlink.com 1.10,2013-06-17 02:03:00,
2013-06-16 22:18:00,81.8,76.0,30.07,SE,136,1.0,-999.0,81,-99.99,,,0.00,weatherlink.com 1.10,2013-06-17 02:18:00,
2013-06-16 22:33:00,81.8,76.0,30.06,SSE,163,0.0,-999.0,82,-99.99,,,0.00,weatherlink.com 1.10,2013-06-17 02:33:00,
2013-06-16 22:49:00,81.7,76.0,30.07,SSE,148,1.0,-999.0,82,-99.99,,,0.00,weatherlink.com 1.10,2013-06-17 02:49:00,
2013-06-16 23:04:00,81.6,76.0,30.08,SE,134,0.0,-999.0,83,-99.99,,,0.00,weatherlink.com 1.10,2013-06-17 03:04:00,
2013-06-16 23:19:00,81.5,76.0,30.08,SE,136,0.0,-999.0,83,-99.99,,,0.00,weatherlink.com 1.10,2013-06-17 03:19:00,
2013-06-16 23:34:00,81.6,76.0,30.08,East,87,1.0,-999.0,82,-99.99,,,0.00,weatherlink.com 1.10,2013-06-17 03:34:00,
2013-06-16 23:49:00,81.6,76.0,30.07,SSE,159,0.0,-999.0,82,-99.99,,,0.00,weatherlink.com 1.10,2013-06-17 03:49:00,